Location: Newark
(48.1500°N, 2.9667°W)
Time: 02:18:59
(UTC+00:00)

Explorer 11/Cluster Stage 4 - Visible Passes

Search period start: 21 January 2020 00:00
Search period end: 31 January 2020 00:00
Orbit: 467 x 1259 km, 28.8° (Epoch: 20 January)

Date Brightness Start Highest point End Pass type
(mag) Time Alt. Az. Time Alt. Az. Time Alt. Az.
21 Jan 9.2 18:00:35 10° SSW 18:02:32 11° S 18:04:24 10° S visible
22 Jan 9.3 17:49:10 10° SSW 17:51:37 12° S 17:53:55 10° SSE visible
23 Jan 9.3 17:37:53 10° SW 17:40:41 13° S 17:43:19 10° SSE visible
24 Jan 9.4 17:26:41 10° SW 17:29:44 13° SSW 17:32:35 10° SSE visible
